When you browse on this site, cookies collect data to enhance your experience and personalize the content and advertising you see.
Visit our Privacy Policy to learn more. By continuing to use the site, you agree to this use of cookies and data.
  • In Deutschland
  • Länderverzeichnis
  • Für 7 Tage
  • Wassertemperatur
  • Wetterkarte
  • Widgets
  • user-avatar
    Anmelden

    Stündliche Wetter Majdan

    Heute, 27 Mai, Mittwoch

    Zeit Temperatur Niederschläge Wind Luftdruck Luftfeuchtigkeit
    00:00 +10°C° 0 mm 3 m/S 763 mmHg 92%
    01:00 +9°C° 0 mm 3 m/S 763 mmHg 93%
    02:00 +9°C° 0 mm 3 m/S 763 mmHg 93%
    03:00 +8°C° 0 mm 3 m/S 763 mmHg 93%
    04:00 +8°C° 0 mm 3 m/S 763 mmHg 93%
    05:00 +9°C° 0 mm 3 m/S 763 mmHg 87%
    06:00 +11°C° 0 mm 3 m/S 763 mmHg 82%
    07:00 +13°C° 0 mm 3 m/S 764 mmHg 75%
    08:00 +14°C° 0 mm 4 m/S 763 mmHg 69%
    09:00 +17°C° 0 mm 4 m/S 763 mmHg 63%
    10:00 +18°C° 0 mm 4 m/S 763 mmHg 57%
    11:00 +19°C° 0.1 mm 4 m/S 762 mmHg 55%
    12:00 +20°C° 0.1 mm 5 m/S 762 mmHg 53%
    13:00 +20°C° 0.1 mm 5 m/S 762 mmHg 51%
    14:00 +20°C° 0 mm 5 m/S 761 mmHg 52%
    15:00 +19°C° 0 mm 5 m/S 761 mmHg 54%
    16:00 +19°C° 0 mm 5 m/S 761 mmHg 55%
    17:00 +18°C° 0 mm 4 m/S 761 mmHg 60%
    18:00 +16°C° 0 mm 3 m/S 761 mmHg 65%
    19:00 +14°C° 0 mm 3 m/S 761 mmHg 70%
    20:00 +14°C° 0 mm 2 m/S 761 mmHg 75%
    21:00 +13°C° 0 mm 2 m/S 761 mmHg 79%
    22:00 +12°C° 0 mm 2 m/S 761 mmHg 83%
    23:00 +10°C° 0 mm 2 m/S 761 mmHg 86%

    Morgen, 28 Mai, Donnerstag

    Zeit Temperatur Niederschläge Wind Luftdruck Luftfeuchtigkeit
    00:00 +10°C° 0 mm 2 m/S 760 mmHg 88%
    01:00 +10°C° 0 mm 1 m/S 760 mmHg 90%
    02:00 +10°C° 0 mm 1 m/S 760 mmHg 90%
    03:00 +10°C° 0 mm 1 m/S 760 mmHg 90%
    04:00 +10°C° 0 mm 1 m/S 759 mmHg 90%
    05:00 +11°C° 0 mm 1 m/S 759 mmHg 83%
    06:00 +13°C° 0 mm 1 m/S 759 mmHg 76%
    07:00 +15°C° 0 mm 1 m/S 759 mmHg 70%
    08:00 +16°C° 0.1 mm 2 m/S 759 mmHg 66%
    09:00 +17°C° 0.1 mm 2 m/S 759 mmHg 62%
    10:00 +18°C° 0.1 mm 2 m/S 759 mmHg 58%
    11:00 +18°C° 0.1 mm 3 m/S 758 mmHg 56%
    12:00 +19°C° 0.1 mm 3 m/S 758 mmHg 55%
    13:00 +19°C° 0.1 mm 4 m/S 758 mmHg 54%
    14:00 +19°C° 0.1 mm 4 m/S 757 mmHg 57%
    15:00 +19°C° 0.1 mm 4 m/S 757 mmHg 60%
    16:00 +18°C° 0.1 mm 4 m/S 757 mmHg 63%
    17:00 +17°C° 0.1 mm 4 m/S 757 mmHg 68%
    18:00 +16°C° 0.1 mm 3 m/S 757 mmHg 73%
    19:00 +14°C° 0.1 mm 3 m/S 757 mmHg 78%
    20:00 +13°C° 0 mm 3 m/S 757 mmHg 82%
    21:00 +12°C° 0 mm 3 m/S 757 mmHg 86%
    22:00 +11°C° 0 mm 4 m/S 757 mmHg 90%
    23:00 +11°C° 0 mm 4 m/S 757 mmHg 91%

    übermorgen, 29 Mai, Freitag

    Zeit Temperatur Niederschläge Wind Luftdruck Luftfeuchtigkeit
    00:00 +11°C° 0 mm 4 m/S 757 mmHg 92%
    01:00 +9°C° 0 mm 5 m/S 757 mmHg 93%
    02:00 +9°C° 0 mm 5 m/S 757 mmHg 90%
    03:00 +8°C° 0 mm 5 m/S 757 mmHg 87%
    04:00 +7°C° 0 mm 5 m/S 757 mmHg 85%
    05:00 +8°C° 0 mm 5 m/S 757 mmHg 81%
    06:00 +9°C° 0 mm 5 m/S 757 mmHg 77%
    07:00 +10°C° 0 mm 6 m/S 757 mmHg 74%
    08:00 +11°C° 0 mm 6 m/S 757 mmHg 69%
    09:00 +14°C° 0 mm 7 m/S 757 mmHg 64%
    10:00 +15°C° 0 mm 7 m/S 757 mmHg 59%
    11:00 +16°C° 0 mm 7 m/S 756 mmHg 57%
    12:00 +16°C° 0 mm 7 m/S 756 mmHg 55%
    13:00 +17°C° 0 mm 7 m/S 756 mmHg 53%
    14:00 +17°C° 0.1 mm 7 m/S 756 mmHg 55%
    15:00 +16°C° 0.1 mm 7 m/S 756 mmHg 57%
    16:00 +16°C° 0.1 mm 7 m/S 755 mmHg 60%
    17:00 +15°C° 0.1 mm 6 m/S 755 mmHg 64%
    18:00 +14°C° 0.1 mm 6 m/S 755 mmHg 68%
    19:00 +13°C° 0.1 mm 5 m/S 755 mmHg 72%
    20:00 +12°C° 0 mm 5 m/S 755 mmHg 73%
    21:00 +12°C° 0 mm 5 m/S 755 mmHg 73%
    22:00 +10°C° 0 mm 5 m/S 754 mmHg 74%
    23:00 +10°C° 0 mm 6 m/S 754 mmHg 74%

    30 Mai, Samstag

    Zeit Temperatur Niederschläge Wind Luftdruck Luftfeuchtigkeit
    00:00 +9°C° 0 mm 6 m/S 754 mmHg 73%
    01:00 +9°C° 0 mm 6 m/S 753 mmHg 73%
    02:00 +8°C° 0.4 mm 6 m/S 753 mmHg 78%
    03:00 +8°C° 0.4 mm 6 m/S 753 mmHg 82%
    04:00 +7°C° 0.4 mm 6 m/S 753 mmHg 87%
    05:00 +7°C° 1.3 mm 6 m/S 752 mmHg 88%
    06:00 +7°C° 1.3 mm 6 m/S 752 mmHg 90%
    07:00 +7°C° 1.3 mm 6 m/S 752 mmHg 91%
    08:00 +7°C° 0.7 mm 6 m/S 752 mmHg 92%
    09:00 +8°C° 0.7 mm 6 m/S 752 mmHg 92%
    10:00 +8°C° 0.7 mm 6 m/S 752 mmHg 93%
    11:00 +8°C° 0.3 mm 6 m/S 752 mmHg 92%
    12:00 +9°C° 0.3 mm 5 m/S 752 mmHg 91%
    13:00 +10°C° 0.3 mm 5 m/S 751 mmHg 90%
    14:00 +10°C° 0 mm 5 m/S 751 mmHg 89%
    15:00 +12°C° 0 mm 5 m/S 751 mmHg 88%
    16:00 +12°C° 0 mm 4 m/S 751 mmHg 87%
    17:00 +13°C° 0 mm 4 m/S 751 mmHg 88%
    18:00 +13°C° 0 mm 4 m/S 750 mmHg 90%
    19:00 +13°C° 0 mm 4 m/S 750 mmHg 91%
    20:00 +13°C° 0.3 mm 4 m/S 750 mmHg 92%
    21:00 +13°C° 0.3 mm 5 m/S 750 mmHg 94%
    22:00 +13°C° 0.3 mm 5 m/S 750 mmHg 96%
    23:00 +13°C° 2.4 mm 5 m/S 749 mmHg 96%

    31 Mai, Sonntag

    Zeit Temperatur Niederschläge Wind Luftdruck Luftfeuchtigkeit
    00:00 +13°C° 2.4 mm 5 m/S 749 mmHg 96%
    01:00 +13°C° 2.4 mm 6 m/S 748 mmHg 96%
    02:00 +13°C° 2.5 mm 6 m/S 748 mmHg 96%
    03:00 +13°C° 2.5 mm 6 m/S 748 mmHg 96%
    04:00 +13°C° 2.5 mm 6 m/S 748 mmHg 95%
    05:00 +13°C° 0.9 mm 6 m/S 748 mmHg 94%
    06:00 +14°C° 0.9 mm 7 m/S 748 mmHg 92%
    07:00 +14°C° 0.9 mm 7 m/S 748 mmHg 91%
    08:00 +15°C° 0 mm 8 m/S 748 mmHg 87%
    09:00 +16°C° 0 mm 8 m/S 748 mmHg 82%
    10:00 +18°C° 0 mm 8 m/S 749 mmHg 78%
    11:00 +18°C° 0 mm 8 m/S 749 mmHg 77%
    12:00 +18°C° 0 mm 8 m/S 749 mmHg 76%
    13:00 +18°C° 0 mm 8 m/S 749 mmHg 75%
    14:00 +18°C° 0 mm 8 m/S 750 mmHg 76%
    15:00 +18°C° 0 mm 7 m/S 750 mmHg 77%
    16:00 +19°C° 0 mm 6 m/S 751 mmHg 79%
    17:00 +17°C° 0 mm 6 m/S 751 mmHg 79%
    18:00 +17°C° 0 mm 6 m/S 751 mmHg 80%
    19:00 +17°C° 0 mm 5 m/S 752 mmHg 80%
    20:00 +16°C° 0 mm 5 m/S 752 mmHg 81%
    21:00 +16°C° 0 mm 5 m/S 753 mmHg 82%
    22:00 +16°C° 0 mm 5 m/S 753 mmHg 82%
    23:00 +15°C° 0 mm 5 m/S 753 mmHg 82%

    1 Juni, Montag

    Zeit Temperatur Niederschläge Wind Luftdruck Luftfeuchtigkeit
    00:00 +15°C° 0 mm 4 m/S 754 mmHg 81%
    01:00 +15°C° 0 mm 4 m/S 754 mmHg 81%
    02:00 +14°C° 0 mm 4 m/S 754 mmHg 79%
    03:00 +14°C° 0 mm 5 m/S 754 mmHg 77%
    04:00 +13°C° 0 mm 5 m/S 755 mmHg 75%
    05:00 +14°C° 0 mm 5 m/S 755 mmHg 75%
    06:00 +14°C° 0 mm 5 m/S 755 mmHg 75%
    07:00 +14°C° 0 mm 5 m/S 756 mmHg 75%
    08:00 +16°C° 0 mm 5 m/S 756 mmHg 71%
    09:00 +17°C° 0 mm 5 m/S 756 mmHg 67%
    10:00 +20°C° 0 mm 6 m/S 757 mmHg 62%
    11:00 +20°C° 0 mm 6 m/S 757 mmHg 59%
    12:00 +21°C° 0 mm 6 m/S 757 mmHg 57%
    13:00 +21°C° 0 mm 6 m/S 757 mmHg 54%
    14:00 +21°C° 0 mm 6 m/S 757 mmHg 55%
    15:00 +20°C° 0 mm 5 m/S 757 mmHg 55%
    16:00 +20°C° 0 mm 5 m/S 757 mmHg 56%
    17:00 +19°C° 0 mm 5 m/S 757 mmHg 61%
    18:00 +17°C° 0 mm 4 m/S 757 mmHg 67%
    19:00 +16°C° 0 mm 3 m/S 757 mmHg 72%
    20:00 +14°C° 0 mm 3 m/S 757 mmHg 75%
    21:00 +13°C° 0 mm 3 m/S 758 mmHg 79%
    22:00 +12°C° 0 mm 3 m/S 758 mmHg 83%
    23:00 +11°C° 0 mm 3 m/S 758 mmHg 83%
    Mehr zeigen